| time (UTC) | temp C | wind direction | speed KPH | gust KPH | rain 1hr cm | rain 24hr cm | rain mn cm | humidity % | barometer mb |
| 20260503021048 | 10 | 270 | 0.0 | 0.0 | 0.00 | 0.00 | 0.00 | 60 | 1111.0 |
| 20260503020048 | 11 | 270 | 0.0 | 0.0 | 0.00 | 0.00 | 0.00 | 58 | 1111.0 |
| 20260503015048 | 11 | 270 | 0.0 | 0.0 | 0.00 | 0.00 | 0.00 | 57 | 1111.0 |
| 20260503014048 | 11 | 270 | 0.0 | 0.0 | 0.00 | 0.00 | 0.00 | 57 | 1111.0 |
| 20260503013048 | 11 | 247 | 0.0 | 0.0 | 0.00 | 0.00 | 0.00 | 57 | 1111.0 |
| 20260503012048 | 11 | 247 | 0.0 | 0.0 | 0.00 | 0.00 | 0.00 | 57 | 1111.0 |
| 20260503011048 | 11 | 247 | 0.0 | 0.0 | 0.00 | 0.00 | 0.00 | 56 | 1111.0 |
| 20260503010048 | 11 | 247 | 0.0 | 0.0 | 0.00 | 0.00 | 0.00 | 56 | 1111.0 |
| 20260503005048 | 11 | 247 | 0.0 | 0.0 | 0.00 | 0.00 | 0.00 | 57 | 1111.0 |
| 20260503004048 | 11 | 247 | 0.0 | 0.0 | 0.00 | 0.00 | 0.00 | 56 | 1111.0 |
| 20260503003048 | 11 | 247 | 0.0 | 0.0 | 0.00 | 0.00 | 0.00 | 56 | 1111.0 |
| 20260503002048 | 11 | 247 | 0.0 | 0.0 | 0.00 | 0.00 | 0.00 | 56 | 1111.0 |
| 20260503001048 | 11 | 247 | 0.0 | 0.0 | 0.00 | 0.00 | 0.00 | 55 | 1111.0 |
| 20260502235047 | 11 | 247 | 0.0 | 0.0 | 0.00 | 0.00 | 0.00 | 54 | 1111.0 |
| 20260502234047 | 12 | 247 | 0.0 | 0.0 | 0.00 | 0.00 | 0.00 | 53 | 1111.0 |
| 20260502233047 | 12 | 247 | 0.0 | 0.0 | 0.00 | 0.00 | 0.00 | 52 | 1111.0 |
| 20260502232047 | 12 | 247 | 0.0 | 0.0 | 0.00 | 0.00 | 0.00 | 51 | 1111.0 |
| 20260502231047 | 12 | 247 | 0.0 | 0.0 | 0.00 | 0.00 | 0.00 | 51 | 1111.0 |
| 20260502230047 | 12 | 247 | 0.0 | 0.0 | 0.00 | 0.00 | 0.00 | 51 | 1111.0 |
| 20260502225047 | 12 | 247 | 0.0 | 0.0 | 0.00 | 0.00 | 0.00 | 51 | 1111.0 |
| 20260502224047 | 13 | 270 | 0.0 | 0.0 | 0.00 | 0.00 | 0.00 | 51 | 1111.0 |
| 20260502223047 | 12 | 247 | 0.0 | 0.0 | 0.00 | 0.00 | 0.00 | 51 | 1111.0 |
| 20260502222047 | 12 | 247 | 0.0 | 0.0 | 0.00 | 0.00 | 0.00 | 51 | 1111.0 |
| 20260502221047 | 12 | 247 | 0.0 | 0.0 | 0.00 | 0.00 | 0.00 | 51 | 1111.0 |
| 20260502220047 | 12 | 247 | 0.0 | 0.0 | 0.00 | 0.00 | 0.00 | 51 | 1111.0 |
| 20260502215047 | 12 | 247 | 0.0 | 0.0 | 0.00 | 0.00 | 0.00 | 50 | 1111.0 |
| 20260502214047 | 12 | 247 | 0.0 | 0.0 | 0.00 | 0.00 | 0.00 | 51 | 1111.0 |
| 20260502213047 | 12 | 247 | 0.0 | 0.0 | 0.00 | 0.00 | 0.00 | 51 | 1111.0 |
| 20260502212047 | 12 | 247 | 0.0 | 0.0 | 0.00 | 0.00 | 0.00 | 51 | 1111.0 |
| 20260502211047 | 12 | 270 | 0.0 | 0.0 | 0.00 | 0.00 | 0.00 | 52 | 1111.0 |
| 20260502210047 | 12 | 270 | 0.0 | 0.0 | 0.00 | 0.00 | 0.00 | 51 | 1111.0 |
| 20260502205047 | 12 | 270 | 0.0 | 0.0 | 0.00 | 0.00 | 0.00 | 50 | 1111.0 |
| 20260502204047 | 13 | 270 | 0.0 | 0.0 | 0.00 | 0.00 | 0.00 | 49 | 1111.0 |
| 20260502203047 | 13 | 270 | 0.0 | 0.0 | 0.00 | 0.00 | 0.00 | 48 | 1111.0 |
| 20260502202047 | 13 | 270 | 0.0 | 0.0 | 0.00 | 0.00 | 0.00 | 47 | 1111.0 |
| 20260502201047 | 13 | 270 | 0.0 | 0.0 | 0.00 | 0.00 | 0.00 | 47 | 1111.0 |
| 20260502200047 | 13 | 270 | 0.0 | 0.0 | 0.00 | 0.00 | 0.00 | 46 | 1111.0 |
| 20260502195048 | 14 | 270 | 0.0 | 0.0 | 0.00 | 0.00 | 0.00 | 45 | 1111.0 |
| 20260502194048 | 15 | 270 | 0.0 | 0.0 | 0.00 | 0.00 | 0.00 | 44 | 1111.0 |
| 20260502193048 | 15 | 270 | 0.0 | 0.0 | 0.00 | 0.00 | 0.00 | 44 | 1111.0 |
| 20260502192048 | 15 | 270 | 0.0 | 0.0 | 0.00 | 0.00 | 0.00 | 42 | 1111.0 |
| 20260502191048 | 15 | 270 | 0.0 | 0.0 | 0.00 | 0.00 | 0.00 | 41 | 1111.0 |
| 20260502190048 | 16 | 270 | 0.0 | 0.0 | 0.00 | 0.00 | 0.00 | 40 | 1111.0 |
| 20260502185048 | 16 | 270 | 0.0 | 0.0 | 0.00 | 0.00 | 0.00 | 39 | 1111.0 |
| 20260502184048 | 16 | 270 | 0.0 | 0.0 | 0.00 | 0.00 | 0.00 | 38 | 1111.0 |
| 20260502183048 | 17 | 270 | 0.0 | 0.0 | 0.00 | 0.00 | 0.00 | 36 | 1111.0 |
| 20260502182048 | 17 | 270 | 0.0 | 0.0 | 0.00 | 0.00 | 0.00 | 35 | 1111.0 |
| 20260502181048 | 18 | 270 | 0.0 | 0.0 | 0.00 | 0.00 | 0.00 | 34 | 1111.0 |
| 20260502164048 | 23 | 270 | 0.0 | 0.0 | 0.00 | 0.00 | 0.00 | 28 | 1111.0 |
| 20260502163048 | 24 | 157 | 0.0 | 0.0 | 0.00 | 0.00 | 0.00 | 27 | 1111.0 |
| 20260502162048 | 25 | 225 | 0.0 | 0.0 | 0.00 | 0.00 | 0.00 | 26 | 1111.0 |
| 20260502161048 | 25 | 180 | 0.0 | 0.0 | 0.00 | 0.00 | 0.00 | 26 | 1111.0 |
| 20260502152048 | 27 | 45 | 0.0 | 0.0 | 0.00 | 0.00 | 0.00 | 25 | 1111.0 |
| 20260502151048 | 28 | 135 | 0.0 | 0.0 | 0.00 | 0.00 | 0.00 | 25 | 1111.0 |
| 20260502123048 | 24 | 22 | 0.0 | 0.0 | 0.00 | 0.00 | 0.00 | 31 | 1111.0 |
| 20260502122048 | 23 | 247 | 0.0 | 0.0 | 0.00 | 0.00 | 0.00 | 32 | 1111.0 |
| 20260502121048 | 22 | 67 | 0.0 | 0.0 | 0.00 | 0.00 | 0.00 | 33 | 1111.0 |
| 20260502115048 | 21 | 112 | 0.0 | 0.0 | 0.00 | 0.00 | 0.00 | 33 | 1111.0 |
| 20260502114048 | 21 | 225 | 0.0 | 0.0 | 0.00 | 0.00 | 0.00 | 33 | 1111.0 |
| 20260502113048 | 20 | 112 | 0.0 | 0.0 | 0.00 | 0.00 | 0.00 | 34 | 1111.0 |
| 20260502112048 | 20 | 202 | 0.0 | 0.0 | 0.00 | 0.00 | 0.00 | 35 | 1111.0 |
| 20260502111048 | 20 | 180 | 0.0 | 0.0 | 0.00 | 0.00 | 0.00 | 35 | 1111.0 |
| 20260502110048 | 20 | 337 | 0.0 | 0.0 | 0.00 | 0.00 | 0.00 | 35 | 1111.0 |
| 20260502105049 | 19 | 247 | 0.0 | 0.0 | 0.00 | 0.00 | 0.00 | 35 | 1111.0 |
| 20260502104049 | 19 | 202 | 0.0 | 0.0 | 0.00 | 0.00 | 0.00 | 35 | 1111.0 |
| 20260502103049 | 19 | 45 | 0.0 | 0.0 | 0.00 | 0.00 | 0.00 | 35 | 1111.0 |
| 20260502102049 | 20 | 112 | 0.0 | 0.0 | 0.00 | 0.00 | 0.00 | 35 | 1111.0 |
| 20260502101049 | 20 | 135 | 0.0 | 0.0 | 0.00 | 0.00 | 0.00 | 37 | 1111.0 |
| 20260502091049 | 21 | 112 | 0.0 | 0.0 | 0.00 | 0.00 | 0.00 | 39 | 1111.0 |
| 20260502071049 | 20 | 112 | 0.0 | 0.0 | 0.00 | 0.00 | 0.00 | 48 | 1111.0 |
| 20260502070049 | 16 | 67 | 0.0 | 0.0 | 0.00 | 0.00 | 0.00 | 54 | 1111.0 |
| 20260502065049 | 13 | 67 | 0.0 | 0.0 | 0.00 | 0.00 | 0.00 | 57 | 1111.0 |
| 20260502064049 | 13 | 67 | 0.0 | 0.0 | 0.00 | 0.00 | 0.00 | 55 | 1111.0 |
| 20260502063049 | 13 | 67 | 0.0 | 0.0 | 0.00 | 0.00 | 0.00 | 55 | 1111.0 |
| 20260502062049 | 13 | 90 | 0.0 | 0.0 | 0.00 | 0.00 | 0.00 | 56 | 1111.0 |
| 20260502061049 | 12 | 67 | 0.0 | 0.0 | 0.00 | 0.00 | 0.00 | 58 | 1111.0 |
| 20260502060049 | 12 | 67 | 0.0 | 0.0 | 0.00 | 0.00 | 0.00 | 58 | 1111.0 |
| 20260502055049 | 11 | 67 | 0.0 | 0.0 | 0.00 | 0.00 | 0.00 | 59 | 1111.0 |
| 20260502054049 | 11 | 67 | 0.0 | 0.0 | 0.00 | 0.00 | 0.00 | 58 | 1111.0 |
| 20260502053049 | 12 | 67 | 0.0 | 0.0 | 0.00 | 0.00 | 0.00 | 59 | 1111.0 |
| 20260502052049 | 11 | 67 | 0.0 | 0.0 | 0.00 | 0.00 | 0.00 | 63 | 1111.0 |
| 20260502051049 | 9 | 67 | 0.0 | 0.0 | 0.00 | 0.00 | 0.00 | 64 | 1111.0 |
| 20260502050049 | 8 | 67 | 0.0 | 0.0 | 0.00 | 0.00 | 0.00 | 64 | 1111.0 |
| 20260502045049 | 8 | 67 | 0.0 | 0.0 | 0.00 | 0.00 | 0.00 | 64 | 1111.0 |
| 20260502044049 | 8 | 67 | 0.0 | 0.0 | 0.00 | 0.00 | 0.00 | 64 | 1111.0 |
| 20260502043050 | 8 | 67 | 0.0 | 0.0 | 0.00 | 0.00 | 0.00 | 64 | 1111.0 |
| 20260502042049 | 8 | 67 | 0.0 | 0.0 | 0.00 | 0.00 | 0.00 | 64 | 1111.0 |
| 20260502041049 | 8 | 67 | 0.0 | 0.0 | 0.00 | 0.00 | 0.00 | 63 | 1111.0 |
| 20260502040049 | 8 | 67 | 0.0 | 0.0 | 0.00 | 0.00 | 0.00 | 63 | 1111.0 |
| 20260502035049 | 8 | 67 | 0.0 | 0.0 | 0.00 | 0.00 | 0.00 | 63 | 1111.0 |
| 20260502034049 | 8 | 67 | 0.0 | 0.0 | 0.00 | 0.00 | 0.00 | 63 | 1111.0 |
| 20260502033049 | 8 | 67 | 0.0 | 0.0 | 0.00 | 0.00 | 0.00 | 63 | 1111.0 |
| 20260502032049 | 8 | 67 | 0.0 | 0.0 | 0.00 | 0.00 | 0.00 | 62 | 1111.0 |
| 20260502031049 | 8 | 67 | 0.0 | 0.0 | 0.00 | 0.00 | 0.00 | 62 | 1111.0 |
| 20260502030049 | 8 | 67 | 0.0 | 0.0 | 0.00 | 0.00 | 0.00 | 62 | 1111.0 |
| 20260502025049 | 8 | 67 | 0.0 | 0.0 | 0.00 | 0.00 | 0.00 | 63 | 1111.0 |
| 20260502024049 | 8 | 112 | 0.0 | 0.0 | 0.00 | 0.00 | 0.00 | 62 | 1111.0 |
| 20260502023049 | 8 | 112 | 0.0 | 0.0 | 0.00 | 0.00 | 0.00 | 61 | 1111.0 |
| 20260502022049 | 8 | 112 | 0.0 | 0.0 | 0.00 | 0.00 | 0.00 | 60 | 1111.0 |